Atoka, OK

5:18 PM CST on November 22, 2019 (GMT -0600)
Atoka Municipal

Weather History for KAQR - July, 2019

Change the Weather History Date:

Saturday, July 13, 2019

  Actual Average (KMLC) Record (KMLC)
Temperature  
Mean Temperature 78 °F -  
Max Temperature 89 °F 91 °F 111 °F (1954)
Min Temperature 68 °F 70 °F 54 °F (1975)
Cooling Degree Days 14    
Growing Degree Days 28 (Base 50)    
Moisture  
Dew Point 70 °F    
Average Humidity 75    
Maximum Humidity 100    
Minimum Humidity 55    
Precipitation  
Precipitation 0.00 in - - ()
Sea Level Pressure  
Sea Level Pressure 29.93 in    
Wind  
Wind Speed 3 mph (NNE)    
Max Wind Speed 12 mph    
Max Gust Speed 17 mph    
Visibility 10 miles    
Events      
Averages and records for this station are not official NWS values.
T = Trace of Precipitation, MM = Missing Value Source: NWS Daily Summary

Daily Weather History Graph

Daily Weather History Graph

Search for Another Location

Airport or City:

Astronomy

Jul. 13, 2019 Rise Set
Actual Time 6:22 AM CDT 8:38 PM CDT
Civil Twilight 5:53 AM CDT 9:07 PM CDT
Nautical Twilight 5:18 AM CDT 9:42 PM CDT
Astronomical Twilight 4:39 AM CDT 10:20 PM CDT
Moon 6:03 PM CDT (7/13) 3:40 AM CDT (7/13)
Length of Visible Light 15h 13m
Length of Day
14h 16m
Waxing Gibbous, 90% of the Moon is Illuminated
Jul 13
Waxing Gibbous
Jul 16
Full
Jul 24
Last Quarter
Jul 31
New
Aug 7
First Quarter

Hourly Weather History & Observations

Time (CDT) Temp. Heat Index Dew Point Humidity Pressure Visibility Wind Dir Wind Speed Gust Speed Precip Events Conditions
12:10 AM 69.8 °F - 66.2 °F 88% 29.92 in 10.0 mi Calm Calm - N/A   Clear
12:35 AM 69.8 °F - 68.0 °F 94% 29.92 in 10.0 mi Calm Calm - N/A   Clear
12:55 AM 69.8 °F - 68.0 °F 94% 29.91 in 10.0 mi Calm Calm - N/A   Clear
1:15 AM 68.0 °F - 68.0 °F 100% 29.91 in 10.0 mi Calm Calm - N/A   Clear
1:55 AM 68.0 °F - 68.0 °F 100% 29.91 in 10.0 mi Calm Calm - N/A   Clear
2:15 AM 68.0 °F - 68.0 °F 100% 29.92 in 10.0 mi Calm Calm - N/A   Clear
2:35 AM 68.0 °F - 68.0 °F 100% 29.92 in 10.0 mi Calm Calm - N/A   Clear
2:55 AM 68.0 °F - 68.0 °F 100% 29.92 in 10.0 mi Calm Calm - N/A   Clear
3:15 AM 68.0 °F - 68.0 °F 100% 29.92 in 10.0 mi Calm Calm - N/A   Clear
3:35 AM 68.0 °F - 68.0 °F 100% 29.92 in 10.0 mi Calm Calm - N/A   Clear
3:55 AM 68.0 °F - 68.0 °F 100% 29.92 in 10.0 mi Calm Calm - N/A   Clear
4:15 AM 68.0 °F - 68.0 °F 100% 29.93 in 10.0 mi Calm Calm - N/A   Clear
4:35 AM 68.0 °F - 68.0 °F 100% 29.94 in 10.0 mi Calm Calm - N/A   Scattered Clouds
4:55 AM 68.0 °F - 68.0 °F 100% 29.94 in 10.0 mi Calm Calm - N/A   Scattered Clouds
5:15 AM 68.0 °F - 68.0 °F 100% 29.94 in 10.0 mi Calm Calm - N/A   Clear
5:35 AM 68.0 °F - 68.0 °F 100% 29.94 in 10.0 mi Calm Calm - N/A   Clear
5:55 AM 68.0 °F - 68.0 °F 100% 29.94 in 10.0 mi Calm Calm - N/A   Clear
6:15 AM 68.0 °F - 68.0 °F 100% 29.94 in 10.0 mi North 3.5 mph - N/A   Clear
6:35 AM 68.0 °F - 68.0 °F 100% 29.94 in 10.0 mi Calm Calm - N/A   Clear
6:55 AM 68.0 °F - 68.0 °F 100% 29.93 in 10.0 mi Calm Calm - N/A   Clear
7:15 AM 69.8 °F - 69.8 °F 100% 29.94 in 10.0 mi Calm Calm - N/A   Clear
7:35 AM 69.8 °F - 69.8 °F 100% 29.94 in 10.0 mi Calm Calm - N/A   Clear
7:55 AM 71.6 °F - 69.8 °F 94% 29.95 in 10.0 mi North 3.5 mph - N/A   Clear
8:15 AM 73.4 °F - 69.8 °F 88% 29.96 in 10.0 mi Calm Calm - N/A   Clear
8:35 AM 77.0 °F - 69.8 °F 78% 29.96 in 10.0 mi North 4.6 mph - N/A   Clear
8:55 AM 78.8 °F - 68.0 °F 69% 29.96 in 10.0 mi North 4.6 mph - N/A   Clear
9:15 AM 78.8 °F - 68.0 °F 69% 29.96 in 10.0 mi NNE 4.6 mph - N/A   Clear
9:35 AM 80.6 °F 83.2 °F 68.0 °F 65% 29.96 in 10.0 mi NNE 5.8 mph - N/A   Clear
9:55 AM 80.6 °F 83.2 °F 68.0 °F 65% 29.96 in 10.0 mi NNE 6.9 mph - N/A   Clear
10:15 AM 82.4 °F 85.4 °F 68.0 °F 62% 29.96 in 10.0 mi NNE 8.1 mph - N/A   Clear
10:35 AM 82.4 °F 85.4 °F 68.0 °F 62% 29.97 in 10.0 mi North 6.9 mph - N/A   Clear
10:55 AM 84.2 °F 87.3 °F 68.0 °F 58% 29.97 in 10.0 mi NNE 8.1 mph - N/A   Clear
11:15 AM 84.2 °F 87.3 °F 68.0 °F 58% 29.97 in 10.0 mi NE 9.2 mph - N/A   Scattered Clouds
11:35 AM 84.2 °F 88.4 °F 69.8 °F 62% 29.97 in 10.0 mi NNE 5.8 mph - N/A   Mostly Cloudy
11:55 AM 86.0 °F 90.4 °F 69.8 °F 58% 29.97 in 10.0 mi NNE 9.2 mph - N/A   Overcast
12:15 PM 86.0 °F 90.4 °F 69.8 °F 58% 29.96 in 10.0 mi NNE 9.2 mph - N/A   Scattered Clouds
12:35 PM 86.0 °F 90.4 °F 69.8 °F 58% 29.96 in 10.0 mi NE 9.2 mph - N/A   Clear
12:55 PM 86.0 °F 89.4 °F 68.0 °F 55% 29.96 in 10.0 mi NNE 11.5 mph 16.1 mph N/A   Mostly Cloudy
1:15 PM 86.0 °F 90.4 °F 69.8 °F 58% 29.95 in 10.0 mi NE 8.1 mph - N/A   Mostly Cloudy
1:35 PM 87.8 °F 92.6 °F 69.8 °F 55% 29.95 in 10.0 mi NNE 8.1 mph - N/A   Scattered Clouds
1:55 PM 87.8 °F 92.6 °F 69.8 °F 55% 29.95 in 10.0 mi NE 8.1 mph - N/A   Mostly Cloudy
2:15 PM 86.0 °F 90.4 °F 69.8 °F 58% 29.95 in 10.0 mi NNE 6.9 mph - N/A   Overcast
2:35 PM 86.0 °F 91.8 °F 71.6 °F 62% 29.95 in 10.0 mi NNE 6.9 mph - N/A   Mostly Cloudy
3:15 PM 87.8 °F 93.8 °F 71.6 °F 58% 29.93 in 10.0 mi NE 10.4 mph - N/A   Scattered Clouds
3:35 PM 87.8 °F 92.6 °F 69.8 °F 55% 29.92 in 10.0 mi North 9.2 mph 16.1 mph N/A   Clear
3:55 PM 89.6 °F 96.2 °F 71.6 °F 55% 29.92 in 10.0 mi NNE 9.2 mph 17.3 mph N/A   Clear
4:15 PM 89.6 °F 96.2 °F 71.6 °F 55% 29.92 in 10.0 mi NE 6.9 mph - N/A   Clear
4:35 PM 89.6 °F 96.2 °F 71.6 °F 55% 29.91 in 10.0 mi NNE 10.4 mph - N/A   Clear
4:55 PM 89.6 °F 96.2 °F 71.6 °F 55% 29.91 in 10.0 mi NNE 9.2 mph 17.3 mph N/A   Scattered Clouds
5:15 PM 89.6 °F 96.2 °F 71.6 °F 55% 29.91 in 10.0 mi NE 8.1 mph - N/A   Clear
5:35 PM 89.6 °F 96.2 °F 71.6 °F 55% 29.90 in 10.0 mi NNE 10.4 mph - N/A   Scattered Clouds
5:55 PM 89.6 °F 96.2 °F 71.6 °F 55% 29.89 in 10.0 mi NE 8.1 mph - N/A   Scattered Clouds
6:15 PM 89.6 °F 96.2 °F 71.6 °F 55% 29.89 in 10.0 mi NE 6.9 mph - N/A   Clear
6:35 PM 89.6 °F 96.2 °F 71.6 °F 55% 29.89 in 10.0 mi NNE 6.9 mph - N/A   Scattered Clouds
6:55 PM 89.6 °F 96.2 °F 71.6 °F 55% 29.89 in 10.0 mi NE 4.6 mph - N/A   Scattered Clouds
7:15 PM 87.8 °F 93.8 °F 71.6 °F 58% 29.89 in 10.0 mi NE 5.8 mph - N/A   Scattered Clouds
7:35 PM 87.8 °F 93.8 °F 71.6 °F 58% 29.89 in 10.0 mi NE 3.5 mph - N/A   Clear
7:55 PM 87.8 °F 93.8 °F 71.6 °F 58% 29.90 in 10.0 mi NE 4.6 mph - N/A   Clear
8:15 PM 86.0 °F 91.8 °F 71.6 °F 62% 29.90 in 10.0 mi NE 3.5 mph - N/A   Clear
8:35 PM 84.2 °F 89.6 °F 71.6 °F 66% 29.90 in 10.0 mi NE 3.5 mph - N/A   Clear
8:55 PM 82.4 °F 87.2 °F 71.6 °F 70% 29.90 in 10.0 mi NNE 3.5 mph - N/A   Clear
9:15 PM 82.4 °F 87.2 °F 71.6 °F 70% 29.90 in 10.0 mi NNE 3.5 mph - N/A   Clear
9:35 PM 80.6 °F 84.6 °F 71.6 °F 74% 29.91 in 10.0 mi Calm Calm - N/A   Clear
9:55 PM 80.6 °F 84.6 °F 71.6 °F 74% 29.91 in 10.0 mi North 3.5 mph - N/A   Clear
10:15 PM 80.6 °F 84.6 °F 71.6 °F 74% 29.92 in 10.0 mi NNE 3.5 mph - N/A   Clear
10:35 PM 78.8 °F - 71.6 °F 78% 29.92 in 10.0 mi Calm Calm - N/A   Clear
10:55 PM 78.8 °F - 71.6 °F 78% 29.93 in 10.0 mi East 4.6 mph - N/A   Clear
11:15 PM 78.8 °F - 71.6 °F 78% 29.93 in 10.0 mi Calm Calm - N/A   Clear
11:35 PM 78.8 °F - 71.6 °F 78% 29.93 in 10.0 mi Calm Calm - N/A   Clear
11:55 PM 78.8 °F - 71.6 °F 78% 29.93 in 10.0 mi Calm Calm - N/A   Clear